San Fermin Berria — EBVW — position and weather

sailwx.info

Track history (hours):
 
Tides and Currents Weather Stations Pressure Air Temp Water Temp Dewpoint Dewpoint Depression Visibility Wind Speed Wind Dir Waves Ship Positions

San Fermin Berria

Last reported at 2014-Oct-30 13:34 UTC. Time now 2014-Oct-30 14:33 UTC.
Position N 43°23' W 001°47'.

Length 30 m.

Type: Fishing. MMSI: 224114650.

Date/timePositionNaut miles runAvg speedWind from/ knotsBaromVisibWave heightAir tempDewpointWater temp
2014-Oct-30 13:34N 43°23' W 001°47'37 9.2
2014-Oct-30 09:33N 43°60' W 001°42'1010.4
2014-Oct-30 08:33N 44°10' W 001°40'1010.0
2014-Oct-30 07:33N 44°20' W 001°38'1010.3
2014-Oct-30 06:34N 44°30' W 001°36'9 9.2
2014-Oct-30 05:33N 44°39' W 001°32'0 0.2
2014-Oct-30 04:33N 44°39' W 001°32'2 1.6
2014-Oct-30 03:34N 44°38' W 001°30'1 0.6
2014-Oct-30 02:33N 44°38' W 001°31'2 2.0
2014-Oct-30 01:33N 44°36' W 001°29'1 0.7
2014-Oct-30 00:33N 44°36' W 001°29'1 1.1
2014-Oct-29 23:34N 44°35' W 001°30'1 0.8
2014-Oct-29 22:34N 44°34' W 001°30'1 0.9
2014-Oct-29 21:34N 44°33' W 001°30'6 6.1
2014-Oct-29 20:33N 44°27' W 001°32'8 0.9
2014-Oct-29 11:33N 44°20' W 001°34'1 0.6
2014-Oct-29 10:33N 44°19' W 001°34'1 0.6
2014-Oct-29 09:33N 44°19' W 001°34'1 0.8
2014-Oct-29 08:26N 44°18' W 001°34'1 1.0
2014-Oct-29 07:31N 44°17' W 001°34'1 0.6
2014-Oct-29 06:32N 44°16' W 001°33'2 1.7
2014-Oct-29 05:33N 44°18' W 001°34'0 0.3
2014-Oct-29 04:31N 44°18' W 001°34'1 0.8
2014-Oct-29 03:28N 44°18' W 001°32'17 5.0
2014-Oct-29 00:09N 44°02' W 001°40'0 0.8
2014-Oct-28 23:33N 44°02' W 001°40'28 0.9
2014-Oct-27 16:07N 43°34' W 001°44'10 6.3
2014-Oct-27 14:33N 43°24' W 001°46'  
2014-Oct-24 13:34N 43°23' W 001°47'0 0.0
2014-Oct-24 12:32N 43°23' W 001°47'0 0.0
2014-Oct-24 11:33N 43°23' W 001°47'0 0.0
2014-Oct-24 10:33N 43°23' W 001°47'0 0.1
2014-Oct-24 09:33N 43°23' W 001°47'6 5.9
2014-Oct-24 08:33N 43°29' W 001°45'9 9.1
2014-Oct-24 07:34N 43°38' W 001°41'8 8.2
2014-Oct-24 06:33N 43°46' W 001°39'13 0.8
2014-Oct-23 14:30N 43°33' W 001°43'9 7.9
2014-Oct-23 13:18N 43°24' W 001°47'1 0.5
2014-Oct-23 10:33N 43°23' W 001°48'6 3.9
2014-Oct-23 09:06N 43°29' W 001°45'7 9.8
2014-Oct-23 08:24N 43°35' W 001°43'12 0.6
2014-Oct-22 14:09N 43°24' W 001°47'1 0.1
2014-Oct-22 06:28N 43°23' W 001°47'0 0.0
2014-Oct-22 05:29N 43°23' W 001°47'0 0.0
2014-Oct-22 04:29N 43°23' W 001°47'0 0.0
2014-Oct-22 03:33N 43°23' W 001°47'0 0.0
2014-Oct-22 02:33N 43°23' W 001°47'0 0.0
2014-Oct-22 01:31N 43°23' W 001°47'0 0.0
2014-Oct-22 00:33N 43°23' W 001°47'0 0.0
2014-Oct-21 23:31N 43°23' W 001°47'0 0.0
2014-Oct-21 20:33N 43°23' W 001°47'0 0.0
2014-Oct-21 19:33N 43°23' W 001°47'0 0.0
2014-Oct-21 18:33N 43°23' W 001°47'0 0.0
2014-Oct-21 11:33N 43°23' W 001°47'11 5.6
2014-Oct-21 09:32N 43°34' W 001°43'60 7.5
2014-Oct-21 01:33N 44°33' W 001°31'9 9.3
2014-Oct-21 00:33N 44°43' W 001°31'9 9.3
2014-Oct-20 23:33N 44°52' W 001°31'11 8.8
2014-Oct-20 22:20N 45°03' W 001°31'5 5.9
2014-Oct-20 21:33N 44°58' W 001°31'1110.8
2014-Oct-20 20:33N 44°47' W 001°32'1110.7
2014-Oct-20 19:33N 44°37' W 001°32'1110.7
2014-Oct-20 18:33N 44°26' W 001°31'18 9.1
2014-Oct-20 16:33N 44°08' W 001°38'1010.3
2014-Oct-20 15:33N 43°58' W 001°39'1010.1
2014-Oct-20 14:33N 43°48' W 001°41'  
Track history (hours):
 
Tides and Currents Weather Stations Pressure Air Temp Water Temp Dewpoint Dewpoint Depression Visibility Wind Speed Wind Dir Waves Ship Positions

San Fermin Berria

Last reported at 2014-Oct-30 13:34 UTC. Time now 2014-Oct-30 14:33 UTC.
Position N 43°23' W 001°47'.

Length 30 m.

Type: Fishing. MMSI: 224114650.

Date/timePositionNaut miles runAvg speedWind from/ knotsBaromVisibWave heightAir tempDewpointWater temp
2014-Oct-30 13:34N 43°23' W 001°47'37 9.2
2014-Oct-30 09:33N 43°60' W 001°42'1010.4
2014-Oct-30 08:33N 44°10' W 001°40'1010.0
2014-Oct-30 07:33N 44°20' W 001°38'1010.3
2014-Oct-30 06:34N 44°30' W 001°36'9 9.2
2014-Oct-30 05:33N 44°39' W 001°32'0 0.2
2014-Oct-30 04:33N 44°39' W 001°32'2 1.6
2014-Oct-30 03:34N 44°38' W 001°30'1 0.6
2014-Oct-30 02:33N 44°38' W 001°31'2 2.0
2014-Oct-30 01:33N 44°36' W 001°29'1 0.7
2014-Oct-30 00:33N 44°36' W 001°29'1 1.1
2014-Oct-29 23:34N 44°35' W 001°30'1 0.8
2014-Oct-29 22:34N 44°34' W 001°30'1 0.9
2014-Oct-29 21:34N 44°33' W 001°30'6 6.1
2014-Oct-29 20:33N 44°27' W 001°32'8 0.9
2014-Oct-29 11:33N 44°20' W 001°34'1 0.6
2014-Oct-29 10:33N 44°19' W 001°34'1 0.6
2014-Oct-29 09:33N 44°19' W 001°34'1 0.8
2014-Oct-29 08:26N 44°18' W 001°34'1 1.0
2014-Oct-29 07:31N 44°17' W 001°34'1 0.6
2014-Oct-29 06:32N 44°16' W 001°33'2 1.7
2014-Oct-29 05:33N 44°18' W 001°34'0 0.3
2014-Oct-29 04:31N 44°18' W 001°34'1 0.8
2014-Oct-29 03:28N 44°18' W 001°32'17 5.0
2014-Oct-29 00:09N 44°02' W 001°40'0 0.8
2014-Oct-28 23:33N 44°02' W 001°40'28 0.9
2014-Oct-27 16:07N 43°34' W 001°44'10 6.3
2014-Oct-27 14:33N 43°24' W 001°46'  
2014-Oct-24 13:34N 43°23' W 001°47'0 0.0
2014-Oct-24 12:32N 43°23' W 001°47'0 0.0
2014-Oct-24 11:33N 43°23' W 001°47'0 0.0
2014-Oct-24 10:33N 43°23' W 001°47'0 0.1
2014-Oct-24 09:33N 43°23' W 001°47'6 5.9
2014-Oct-24 08:33N 43°29' W 001°45'9 9.1
2014-Oct-24 07:34N 43°38' W 001°41'8 8.2
2014-Oct-24 06:33N 43°46' W 001°39'13 0.8
2014-Oct-23 14:30N 43°33' W 001°43'9 7.9
2014-Oct-23 13:18N 43°24' W 001°47'1 0.5
2014-Oct-23 10:33N 43°23' W 001°48'6 3.9
2014-Oct-23 09:06N 43°29' W 001°45'7 9.8
2014-Oct-23 08:24N 43°35' W 001°43'12 0.6
2014-Oct-22 14:09N 43°24' W 001°47'1 0.1
2014-Oct-22 06:28N 43°23' W 001°47'0 0.0
2014-Oct-22 05:29N 43°23' W 001°47'0 0.0
2014-Oct-22 04:29N 43°23' W 001°47'0 0.0
2014-Oct-22 03:33N 43°23' W 001°47'0 0.0
2014-Oct-22 02:33N 43°23' W 001°47'0 0.0
2014-Oct-22 01:31N 43°23' W 001°47'0 0.0
2014-Oct-22 00:33N 43°23' W 001°47'0 0.0
2014-Oct-21 23:31N 43°23' W 001°47'0 0.0
2014-Oct-21 20:33N 43°23' W 001°47'0 0.0
2014-Oct-21 19:33N 43°23' W 001°47'0 0.0
2014-Oct-21 18:33N 43°23' W 001°47'0 0.0
2014-Oct-21 11:33N 43°23' W 001°47'11 5.6
2014-Oct-21 09:32N 43°34' W 001°43'60 7.5
2014-Oct-21 01:33N 44°33' W 001°31'9 9.3
2014-Oct-21 00:33N 44°43' W 001°31'9 9.3
2014-Oct-20 23:33N 44°52' W 001°31'11 8.8
2014-Oct-20 22:20N 45°03' W 001°31'5 5.9
2014-Oct-20 21:33N 44°58' W 001°31'1110.8
2014-Oct-20 20:33N 44°47' W 001°32'1110.7
2014-Oct-20 19:33N 44°37' W 001°32'1110.7
2014-Oct-20 18:33N 44°26' W 001°31'18 9.1
2014-Oct-20 16:33N 44°08' W 001°38'1010.3
2014-Oct-20 15:33N 43°58' W 001°39'1010.1
2014-Oct-20 14:33N 43°48' W 001°41'  

Dump ship's entire track history